Location: Canet
(43.3261°N, 5.3723°E)
Time: 19:37:12
(UTC+00:00)

Meteor 1-24 Rocket - Pass Details

Date: 24 January 2021
Orbit: 791 x 926 km, 81.3° (Epoch: 07 March)

Event Time Altitude Azimuth Distance (km) Brightness Sun altitude
Rises 17:00:12 0° 194° (SSW) 3,306 7.4 -4.2°
Reaches altitude 10° 17:02:35 10° 196° (SSW) 2,368 6.6 -4.6°
Maximum altitude 17:07:54 73° 281° (W) 832 3.9 -5.5°
Drops below altitude 10° 17:13:13 10° 6° (N) 2,368 5.8 -6.4°
Sets 17:15:36 0° 9° (N) 3,306 6.5 -6.8°
